This is the latest recevied weather packets stored in our database for station/object WX8ASH-13. If no packets are shown the sender has not sent any weather packets the latest 10 day(s).
| Time | Temp. | Humidity | Pressure | Rain* | Wind** | Luminosity | Snow |
|---|---|---|---|---|---|---|---|
| 1778096430 | 12.22° C | 65% | 1019.5 hPa | 0 mm | - | - | - |
| 1778096128 | 12.22° C | 63% | 1019.5 hPa | 0 mm | - | - | - |
| 1778095827 | 12.22° C | 67% | 1019.4 hPa | 0 mm | - | - | - |
| 1778095536 | 12.22° C | 67% | 1019.4 hPa | 0 mm | - | - | - |
| 1778095229 | 12.22° C | 65% | 1019.3 hPa | 0 mm | - | - | - |
| 1778094930 | 12.22° C | 65% | 1019.2 hPa | 0 mm | - | - | - |
| 1778094628 | 11.67° C | 66% | 1019.1 hPa | 0 mm | - | - | - |
| 1778094328 | 11.67° C | 65% | 1019.3 hPa | 0 mm | - | - | - |
| 1778094028 | 11.67° C | 65% | 1019.5 hPa | 0 mm | - | - | - |
| 1778093727 | 11.67° C | 65% | 1019.5 hPa | 0 mm | - | - | - |
| 1778093426 | 12.22° C | 63% | 1019.5 hPa | 0 mm | - | - | - |
| 1778093127 | 12.22° C | 63% | 1019.6 hPa | 0 mm | - | - | - |
| 1778092826 | 12.22° C | 63% | 1019.6 hPa | 0 mm | - | - | - |
| 1778092526 | 12.22° C | 64% | 1019.6 hPa | 0 mm | - | - | - |
| 1778092226 | 12.78° C | 62% | 1019.4 hPa | 0 mm | - | - | - |
| 1778091927 | 12.78° C | 61% | 1019.5 hPa | 0 mm | - | - | - |
| 1778091690 | 12.78° C | 63% | 1019.4 hPa | 0 mm | - | - | - |
| 1778091326 | 12.22° C | 66% | 1019.4 hPa | 0 mm | - | - | - |
| 1778091025 | 12.22° C | 65% | 1019.5 hPa | 0 mm | - | - | - |
| 1778090726 | 12.78° C | 63% | 1019.4 hPa | 0 mm | - | - | - |
| 1778090425 | 12.78° C | 63% | 1019.5 hPa | 0 mm | - | - | - |
| 1778090125 | 12.78° C | 64% | 1019.4 hPa | 0 mm | - | - | - |
| 1778089825 | 12.78° C | 65% | 1019.5 hPa | 0 mm | - | - | - |
| 1778089525 | 12.78° C | 65% | 1019.6 hPa | 0 mm | - | - | - |
| 1778089226 | 12.78° C | 64% | 1019.4 hPa | 0 mm | - | - | - |
* Rain latest hour (hover to see other rain measurements)
** Current wind speed in m/s (hover to see current wind gust speed)